Walnut Ridge, AR

11:19 AM CDT on May 25, 2018 (GMT -0500)
Walnut Ridge Regional

Weather History for KARG - April, 2013

Change the Weather History Date:

Monday, April 1, 2013

  Actual Average Record
Temperature  
Mean Temperature 51 °F -  
Max Temperature 60 °F 63 °F 86 °F (2012)
Min Temperature 42 °F 45 °F 35 °F (2001)
Degree Days  
Heating Degree Days 14    
Growing Degree Days 1 (Base 50)    
Moisture  
Dew Point 42 °F    
Average Humidity 70    
Maximum Humidity 93    
Minimum Humidity 48    
Precipitation  
Precipitation 0.09 in - - ()
Sea Level Pressure  
Sea Level Pressure 30.09 in    
Wind  
Wind Speed 8 mph (NNE)    
Max Wind Speed 16 mph    
Max Gust Speed 21 mph    
Visibility 10 miles    
Events      
Averages and records for this station are not official NWS values.
T = Trace of Precipitation, MM = Missing Value Source: NWS Daily Summary

Daily Weather History Graph

Daily Weather History Graph

Search for Another Location

Airport or City:

Astronomy

Apr. 01, 2013 Rise Set
Actual Time 6:49 AM CDT 7:25 PM CDT
Civil Twilight 6:23 AM CDT 7:51 PM CDT
Nautical Twilight 5:53 AM CDT 8:22 PM CDT
Astronomical Twilight 5:22 AM CDT 8:53 PM CDT
Moon 12:26 AM CDT (4/1) 10:44 AM CDT (4/1)
Length of Visible Light 13h 28m
Length of Day
12h 36m
Waning Gibbous, 67% of the Moon is Illuminated
Apr 1
Waning Gibbous
Apr 2
Last Quarter
Apr 10
New
Apr 18
First Quarter
Apr 25
Full

Hourly Weather History & Observations

Time (CDT) Temp. Windchill Dew Point Humidity Pressure Visibility Wind Dir Wind Speed Gust Speed Precip Events Conditions
12:15 AM 53.6 °F - 48.2 °F 82% 29.94 in 10.0 mi WSW 9.2 mph - N/A   Clear
12:35 AM 53.6 °F - 48.2 °F 82% 29.94 in 10.0 mi WSW 8.1 mph - N/A   Clear
12:55 AM 51.8 °F - 48.2 °F 88% 29.94 in 10.0 mi WSW 8.1 mph - N/A   Clear
1:15 AM 51.8 °F - 46.4 °F 82% 29.94 in 10.0 mi WSW 8.1 mph - N/A   Clear
1:35 AM 51.8 °F - 46.4 °F 82% 29.94 in 10.0 mi WSW 8.1 mph - N/A   Clear
1:55 AM 51.8 °F - 46.4 °F 82% 29.95 in 10.0 mi WSW 6.9 mph - N/A   Clear
2:15 AM 50.0 °F - 46.4 °F 87% 29.95 in 10.0 mi West 5.8 mph - N/A   Clear
2:35 AM 48.2 °F - 46.4 °F 93% 29.95 in 10.0 mi West 4.6 mph - N/A   Clear
3:15 AM 48.2 °F - 46.4 °F 93% 29.96 in 10.0 mi WSW 5.8 mph - N/A   Clear
3:35 AM 48.2 °F - 44.6 °F 87% 29.97 in 10.0 mi West 4.6 mph - N/A   Clear
3:55 AM 46.4 °F 44.3 °F 44.6 °F 93% 29.97 in 10.0 mi West 4.6 mph - N/A   Clear
4:15 AM 46.4 °F 43.5 °F 42.8 °F 87% 29.98 in 10.0 mi WNW 5.8 mph - N/A   Clear
4:35 AM 46.4 °F 42.9 °F 42.8 °F 87% 29.99 in 10.0 mi WNW 6.9 mph - N/A   Clear
5:15 AM 44.6 °F 40.7 °F 41.0 °F 87% 30.00 in 10.0 mi NW 6.9 mph - 0.09 in   Clear
5:35 AM 44.6 °F 42.2 °F 42.8 °F 93% 30.00 in 10.0 mi NNW 4.6 mph - 0.09 in   Clear
5:55 AM 44.6 °F 41.4 °F 41.0 °F 87% 30.02 in 10.0 mi NNW 5.8 mph - 0.09 in   Clear
6:15 AM 42.8 °F 38.6 °F 41.0 °F 93% 30.04 in 10.0 mi NNW 6.9 mph - N/A   Clear
6:35 AM 42.8 °F 37.5 °F 39.2 °F 87% 30.05 in 10.0 mi NNW 9.2 mph - N/A   Clear
6:55 AM 44.6 °F 39.2 °F 41.0 °F 87% 30.07 in 10.0 mi North 10.4 mph - N/A   Clear
7:15 AM 46.4 °F 41.1 °F 39.2 °F 76% 30.08 in 10.0 mi NNE 11.5 mph - N/A   Clear
7:35 AM 46.4 °F 41.1 °F 39.2 °F 76% 30.08 in 3.0 mi NNE 11.5 mph - N/A   Clear
8:15 AM 48.2 °F - 39.2 °F 71% 30.10 in 10.0 mi NNE 10.4 mph - N/A   Clear
8:35 AM 48.2 °F - 39.2 °F 71% 30.09 in 10.0 mi NNE 11.5 mph - N/A   Clear
8:55 AM 50.0 °F - 39.2 °F 66% 30.11 in 8.0 mi NNE 16.1 mph - N/A   Clear
9:15 AM 50.0 °F - 39.2 °F 66% 30.13 in 2.0 mi NNE 15.0 mph - N/A   Clear
9:35 AM 51.8 °F - 37.4 °F 58% 30.14 in 10.0 mi NNE 15.0 mph - N/A   Clear
10:15 AM 51.8 °F - 39.2 °F 62% 30.14 in 10.0 mi NE 15.0 mph - N/A   Clear
10:35 AM 51.8 °F - 39.2 °F 62% 30.15 in 10.0 mi NE 12.7 mph - N/A   Clear
11:15 AM 53.6 °F - 39.2 °F 58% 30.16 in 10.0 mi NNE 13.8 mph - N/A   Clear
11:35 AM 53.6 °F - 39.2 °F 58% 30.16 in 9.0 mi NE 10.4 mph 16.1 mph N/A   Clear
11:55 AM 53.6 °F - 39.2 °F 58% 30.16 in 10.0 mi NE 11.5 mph 16.1 mph N/A   Clear
12:35 PM 55.4 °F - 39.2 °F 54% 30.16 in 10.0 mi NE 8.1 mph - N/A   Clear
12:55 PM 55.4 °F - 41.0 °F 58% 30.16 in 10.0 mi ENE 4.6 mph - N/A   Clear
1:15 PM 55.4 °F - 41.0 °F 58% 30.15 in 10.0 mi East 8.1 mph - N/A   Clear
1:35 PM 55.4 °F - 39.2 °F 54% 30.15 in 10.0 mi East 4.6 mph - N/A   Clear
2:15 PM 57.2 °F - 42.8 °F 59% 30.14 in 10.0 mi NE 6.9 mph - N/A   Clear
2:35 PM 57.2 °F - 42.8 °F 59% 30.13 in 10.0 mi East 4.6 mph - N/A   Clear
2:55 PM 57.2 °F - 42.8 °F 59% 30.13 in 10.0 mi East 4.6 mph - N/A   Clear
3:15 PM 59.0 °F - 42.8 °F 55% 30.12 in 10.0 mi East 10.4 mph - N/A   Clear
3:35 PM 59.0 °F - 42.8 °F 55% 30.12 in 10.0 mi ENE 8.1 mph - N/A   Clear
3:55 PM 59.0 °F - 42.8 °F 55% 30.11 in 10.0 mi ESE 8.1 mph - N/A   Clear
4:15 PM 60.8 °F - 41.0 °F 48% 30.11 in 10.0 mi East 5.8 mph - N/A   Clear
4:35 PM 60.8 °F - 41.0 °F 48% 30.12 in 10.0 mi Calm Calm - N/A   Clear
4:55 PM 60.8 °F - 42.8 °F 52% 30.11 in 10.0 mi East 3.5 mph - N/A   Clear
5:15 PM 60.8 °F - 42.8 °F 52% 30.12 in 10.0 mi NNE 3.5 mph - N/A   Clear
5:35 PM 60.8 °F - 42.8 °F 52% 30.12 in 10.0 mi NE 3.5 mph - N/A   Clear
5:55 PM 60.8 °F - 42.8 °F 52% 30.11 in 10.0 mi NE 4.6 mph - N/A   Clear
6:15 PM 60.8 °F - 42.8 °F 52% 30.11 in 10.0 mi NE 5.8 mph - N/A   Clear
6:35 PM 59.0 °F - 44.6 °F 59% 30.11 in 10.0 mi NE 8.1 mph - N/A   Clear
6:55 PM 57.2 °F - 44.6 °F 63% 30.11 in 10.0 mi NE 5.8 mph - N/A   Clear
7:15 PM 55.4 °F - 46.4 °F 72% 30.11 in 10.0 mi NE 5.8 mph - N/A   Scattered Clouds
7:35 PM 55.4 °F - 46.4 °F 72% 30.11 in 10.0 mi NE 4.6 mph - N/A   Mostly Cloudy
7:55 PM 55.4 °F - 46.4 °F 72% 30.13 in 10.0 mi NE 4.6 mph - N/A   Scattered Clouds
8:15 PM 55.4 °F - 46.4 °F 72% 30.14 in 10.0 mi NE 8.1 mph - N/A   Mostly Cloudy
8:55 PM 51.8 °F - 42.8 °F 71% 30.15 in 10.0 mi NE 13.8 mph - N/A   Mostly Cloudy
9:15 PM 51.8 °F - 41.0 °F 67% 30.14 in 10.0 mi NE 15.0 mph - N/A   Mostly Cloudy
9:35 PM 50.0 °F - 39.2 °F 66% 30.14 in 10.0 mi NE 16.1 mph 20.7 mph N/A   Scattered Clouds
9:55 PM 48.2 °F - 39.2 °F 71% 30.14 in 10.0 mi NE 13.8 mph - N/A   Clear
10:15 PM 48.2 °F - 39.2 °F 71% 30.16 in 10.0 mi NE 10.4 mph - N/A   Clear
10:35 PM 48.2 °F - 39.2 °F 71% 30.16 in 10.0 mi NE 10.4 mph - N/A   Clear
10:55 PM 48.2 °F - 39.2 °F 71% 30.17 in 10.0 mi NE 10.4 mph - N/A   Mostly Cloudy
11:15 PM 48.2 °F - 39.2 °F 71% 30.18 in 10.0 mi NNE 9.2 mph - N/A   Overcast
11:35 PM 48.2 °F - 37.4 °F 66% 30.17 in 10.0 mi NNE 10.4 mph - N/A   Mostly Cloudy
11:55 PM 46.4 °F 41.5 °F 37.4 °F 71% 30.17 in 10.0 mi NNE 10.4 mph - N/A   Mostly Cloudy